When you browse on this site, cookies collect data to enhance your experience and personalize the content and advertising you see.
Visit our Privacy Policy to learn more. By continuing to use the site, you agree to this use of cookies and data.
  • In Deutschland
  • Länderverzeichnis
  • Für 7 Tage
  • Wassertemperatur
  • Wetterkarte
  • Widgets
  • user-avatar
    Anmelden

    Stündliche Wetter Albany

    Heute, 18 Oktober, Freitag

    Zeit Temperatur Niederschläge Wind Luftdruck Luftfeuchtigkeit
    00:00 +10°C° 0 mm 5 m/S 762 mmHg 74%
    01:00 +11°C° 0 mm 4 m/S 762 mmHg 72%
    02:00 +11°C° 0 mm 4 m/S 762 mmHg 70%
    03:00 +11°C° 0 mm 4 m/S 762 mmHg 71%
    04:00 +11°C° 0 mm 4 m/S 762 mmHg 71%
    05:00 +11°C° 0 mm 3 m/S 762 mmHg 71%
    06:00 +11°C° 0 mm 3 m/S 763 mmHg 70%
    07:00 +12°C° 0 mm 3 m/S 763 mmHg 69%
    08:00 +12°C° 0 mm 3 m/S 763 mmHg 70%
    09:00 +13°C° 0 mm 3 m/S 763 mmHg 68%
    10:00 +13°C° 0 mm 3 m/S 764 mmHg 65%
    11:00 +15°C° 0 mm 2 m/S 764 mmHg 63%
    12:00 +15°C° 0 mm 2 m/S 763 mmHg 62%
    13:00 +15°C° 0 mm 2 m/S 763 mmHg 62%
    14:00 +14°C° 0 mm 3 m/S 763 mmHg 61%
    15:00 +14°C° 0 mm 3 m/S 763 mmHg 63%
    16:00 +14°C° 0 mm 3 m/S 763 mmHg 64%
    17:00 +13°C° 0 mm 3 m/S 763 mmHg 66%
    18:00 +12°C° 0 mm 3 m/S 764 mmHg 70%
    19:00 +11°C° 0 mm 3 m/S 764 mmHg 74%
    20:00 +10°C° 0 mm 3 m/S 765 mmHg 78%
    21:00 +9°C° 0 mm 3 m/S 765 mmHg 80%
    22:00 +9°C° 0 mm 3 m/S 765 mmHg 81%
    23:00 +9°C° 0 mm 3 m/S 765 mmHg 82%

    Morgen, 19 Oktober, Samstag

    Zeit Temperatur Niederschläge Wind Luftdruck Luftfeuchtigkeit
    00:00 +9°C° 0 mm 3 m/S 764 mmHg 84%
    01:00 +8°C° 0 mm 3 m/S 764 mmHg 86%
    02:00 +8°C° 0 mm 3 m/S 764 mmHg 88%
    03:00 +7°C° 0 mm 3 m/S 764 mmHg 88%
    04:00 +7°C° 0 mm 3 m/S 764 mmHg 89%
    05:00 +7°C° 0 mm 3 m/S 764 mmHg 89%
    06:00 +8°C° 0 mm 4 m/S 764 mmHg 83%
    07:00 +10°C° 0 mm 5 m/S 764 mmHg 77%
    08:00 +13°C° 0 mm 6 m/S 764 mmHg 70%
    09:00 +15°C° 0 mm 6 m/S 764 mmHg 66%
    10:00 +16°C° 0 mm 5 m/S 764 mmHg 62%
    11:00 +17°C° 0 mm 5 m/S 763 mmHg 58%
    12:00 +19°C° 0 mm 6 m/S 763 mmHg 58%
    13:00 +19°C° 0 mm 6 m/S 762 mmHg 58%
    14:00 +20°C° 0 mm 7 m/S 761 mmHg 57%
    15:00 +18°C° 0 mm 7 m/S 761 mmHg 62%
    16:00 +17°C° 0 mm 7 m/S 761 mmHg 67%
    17:00 +16°C° 0 mm 7 m/S 761 mmHg 72%
    18:00 +15°C° 0 mm 7 m/S 761 mmHg 76%
    19:00 +14°C° 0 mm 6 m/S 761 mmHg 80%
    20:00 +13°C° 0 mm 6 m/S 761 mmHg 84%
    21:00 +13°C° 0 mm 6 m/S 761 mmHg 86%
    22:00 +13°C° 0 mm 6 m/S 760 mmHg 88%
    23:00 +13°C° 0 mm 6 m/S 760 mmHg 90%

    übermorgen, 20 Oktober, Sonntag

    Zeit Temperatur Niederschläge Wind Luftdruck Luftfeuchtigkeit
    00:00 +13°C° 0 mm 6 m/S 759 mmHg 90%
    01:00 +13°C° 0 mm 6 m/S 759 mmHg 90%
    02:00 +13°C° 0 mm 6 m/S 758 mmHg 90%
    03:00 +13°C° 0 mm 6 m/S 758 mmHg 88%
    04:00 +13°C° 0 mm 6 m/S 757 mmHg 85%
    05:00 +13°C° 0 mm 6 m/S 757 mmHg 83%
    06:00 +14°C° 0 mm 6 m/S 757 mmHg 74%
    07:00 +16°C° 0 mm 6 m/S 756 mmHg 66%
    08:00 +19°C° 0 mm 6 m/S 756 mmHg 57%
    09:00 +21°C° 0 mm 5 m/S 756 mmHg 54%
    10:00 +25°C° 0 mm 5 m/S 755 mmHg 50%
    11:00 +27°C° 0 mm 5 m/S 755 mmHg 46%
    12:00 +28°C° 0 mm 5 m/S 755 mmHg 44%
    13:00 +28°C° 0 mm 5 m/S 754 mmHg 42%
    14:00 +29°C° 0 mm 5 m/S 754 mmHg 41%
    15:00 +28°C° 0 mm 5 m/S 754 mmHg 46%
    16:00 +27°C° 0 mm 5 m/S 754 mmHg 51%
    17:00 +26°C° 0 mm 5 m/S 754 mmHg 57%
    18:00 +22°C° 0 mm 5 m/S 755 mmHg 62%
    19:00 +20°C° 0 mm 4 m/S 755 mmHg 68%
    20:00 +17°C° 0 mm 4 m/S 756 mmHg 73%
    21:00 +15°C° 0 mm 4 m/S 756 mmHg 79%
    22:00 +14°C° 0 mm 4 m/S 756 mmHg 85%
    23:00 +14°C° 0 mm 4 m/S 757 mmHg 91%

    21 Oktober, Montag

    Zeit Temperatur Niederschläge Wind Luftdruck Luftfeuchtigkeit
    00:00 +14°C° 0 mm 4 m/S 757 mmHg 92%
    01:00 +14°C° 0 mm 5 m/S 756 mmHg 93%
    02:00 +14°C° 0 mm 5 m/S 756 mmHg 94%
    03:00 +14°C° 0 mm 5 m/S 757 mmHg 91%
    04:00 +15°C° 0 mm 5 m/S 757 mmHg 88%
    05:00 +15°C° 0 mm 5 m/S 758 mmHg 85%
    06:00 +16°C° 0 mm 5 m/S 758 mmHg 82%
    07:00 +17°C° 0 mm 4 m/S 758 mmHg 79%
    08:00 +18°C° 0 mm 4 m/S 759 mmHg 76%
    09:00 +19°C° 0 mm 4 m/S 759 mmHg 69%
    10:00 +21°C° 0 mm 3 m/S 759 mmHg 62%
    11:00 +22°C° 0 mm 3 m/S 759 mmHg 55%
    12:00 +22°C° 0 mm 4 m/S 759 mmHg 56%
    13:00 +22°C° 0 mm 4 m/S 758 mmHg 56%
    14:00 +22°C° 0 mm 4 m/S 758 mmHg 57%
    15:00 +21°C° 0 mm 4 m/S 758 mmHg 59%
    16:00 +20°C° 0 mm 4 m/S 759 mmHg 61%
    17:00 +19°C° 0 mm 4 m/S 759 mmHg 63%
    18:00 +17°C° 0 mm 3 m/S 759 mmHg 71%
    19:00 +15°C° 0 mm 2 m/S 760 mmHg 79%
    20:00 +13°C° 0 mm 1 m/S 760 mmHg 87%
    21:00 +13°C° 0 mm 1 m/S 760 mmHg 88%
    22:00 +13°C° 0 mm 1 m/S 760 mmHg 90%
    23:00 +13°C° 0 mm 1 m/S 760 mmHg 91%

    22 Oktober, Dienstag

    Zeit Temperatur Niederschläge Wind Luftdruck Luftfeuchtigkeit
    00:00 +13°C° 0 mm 1 m/S 760 mmHg 92%
    01:00 +13°C° 0 mm 2 m/S 760 mmHg 92%
    02:00 +12°C° 0 mm 2 m/S 760 mmHg 93%
    03:00 +12°C° 0 mm 2 m/S 760 mmHg 93%
    04:00 +12°C° 0 mm 2 m/S 760 mmHg 93%
    05:00 +12°C° 0 mm 2 m/S 760 mmHg 93%
    06:00 +14°C° 0 mm 2 m/S 760 mmHg 86%
    07:00 +16°C° 0 mm 2 m/S 760 mmHg 79%
    08:00 +18°C° 0 mm 2 m/S 760 mmHg 72%
    09:00 +20°C° 0 mm 2 m/S 760 mmHg 67%
    10:00 +23°C° 0 mm 2 m/S 759 mmHg 61%
    11:00 +24°C° 0 mm 1 m/S 759 mmHg 55%
    12:00 +24°C° 0 mm 2 m/S 758 mmHg 56%
    13:00 +24°C° 0 mm 2 m/S 758 mmHg 57%
    14:00 +24°C° 0 mm 3 m/S 757 mmHg 58%
    15:00 +21°C° 0.6 mm 3 m/S 757 mmHg 66%
    16:00 +20°C° 0.6 mm 3 m/S 757 mmHg 75%
    17:00 +18°C° 0.6 mm 3 m/S 756 mmHg 84%
    18:00 +17°C° 2 mm 3 m/S 757 mmHg 88%
    19:00 +16°C° 2 mm 3 m/S 757 mmHg 91%
    20:00 +15°C° 2 mm 4 m/S 758 mmHg 95%
    21:00 +14°C° 0.5 mm 4 m/S 758 mmHg 95%
    22:00 +13°C° 0.5 mm 4 m/S 758 mmHg 94%
    23:00 +13°C° 0.5 mm 4 m/S 758 mmHg 94%

    23 Oktober, Mittwoch

    Zeit Temperatur Niederschläge Wind Luftdruck Luftfeuchtigkeit
    00:00 +12°C° 0 mm 4 m/S 757 mmHg 94%
    01:00 +12°C° 0 mm 4 m/S 757 mmHg 95%
    02:00 +12°C° 0 mm 4 m/S 756 mmHg 95%
    03:00 +12°C° 0 mm 4 m/S 756 mmHg 95%
    04:00 +12°C° 0 mm 4 m/S 756 mmHg 95%
    05:00 +12°C° 0 mm 4 m/S 756 mmHg 94%
    06:00 +13°C° 0.1 mm 5 m/S 757 mmHg 91%
    07:00 +14°C° 0.1 mm 6 m/S 757 mmHg 88%
    08:00 +16°C° 0.1 mm 6 m/S 757 mmHg 84%
    09:00 +16°C° 0.1 mm 7 m/S 757 mmHg 76%
    10:00 +17°C° 0.1 mm 8 m/S 758 mmHg 68%
    11:00 +17°C° 0.1 mm 8 m/S 758 mmHg 60%
    12:00 +17°C° 0 mm 8 m/S 758 mmHg 59%
    13:00 +17°C° 0 mm 8 m/S 758 mmHg 58%
    14:00 +17°C° 0 mm 8 m/S 758 mmHg 57%
    15:00 +16°C° 0 mm 8 m/S 758 mmHg 59%
    16:00 +16°C° 0 mm 7 m/S 759 mmHg 61%
    17:00 +15°C° 0 mm 7 m/S 759 mmHg 64%
    18:00 +14°C° 0 mm 6 m/S 760 mmHg 67%
    19:00 +13°C° 0 mm 6 m/S 760 mmHg 71%
    20:00 +12°C° 0 mm 5 m/S 761 mmHg 75%
    21:00 +12°C° 0 mm 5 m/S 761 mmHg 77%
    22:00 +11°C° 0 mm 4 m/S 761 mmHg 78%
    23:00 +11°C° 0 mm 4 m/S 762 mmHg 80%
    Mehr zeigen